Other Surface Observations
Issued by NWS

Home | Current Version | Previous Version | Text Only | Print | Product List | Glossary On
Versions: 1 2 3 4 5 6 7 8 9 10 11 12 13 14 15 16 17 18 19 20 21 22 23 24 25 26 27 28 29 30 31 32 33 34 35 36 37 38 39 40 41 42 43 44 45 46 47 48 49 50
000
SXUS52 KTAE 220418
OSOTAE
OSOTAE
North Florida/South Alabama/Southwest Georgia Weather Roundup
National Weather Service Tallahassee Florida
1200 AM EDT MON SEP 22 2014

Note: "fair" indicates few or no clouds below 12,000 feet with no
significant weather and/or obstructions to visibility.

!FLZ017-115-028-034-025-220500
...North Florida...

CITY           SKY/WX    TMP DP  RH WIND       PRES   REMARKS
TALLAHASSEE    CLEAR     67  65  93 CALM      30.03S
APALACHICOLA   CLEAR     71  66  84 CALM      30.02S
PERRY          PTCLDY    68  68 100 CALM      30.04S FOG
CROSS CITY       N/A     71  68  90 CALM      30.03R
HOMERVILLE     FAIR      70  68  94 CALM      30.03S
JACKSONVILLE   PTCLDY    68  65  90 CALM      30.02S
$$

!FLZ112-006-005-002-011-220500
...Florida Panhandle...

CITY           SKY/WX    TMP DP  RH WIND       PRES   REMARKS
MARIANNA       CLEAR     71  67  87 CALM      30.01F
BONIFAY        FAIR      67  66  97 MISG      30.02F
PANAMA CITY NW FAIR      70  67  90 CALM      30.01S
TYNDALL AFB    CLEAR     71  69  96 CALM      30.02S
TYND DRONE APT FAIR      71  70  97 MISG      30.01S
DE FUNIAK SPR  FAIR      72  67  84 CALM      30.02F
EGLIN AFB      CLEAR     72  67  83 CALM      30.01F
DESTIN         CLEAR     73  68  84 CALM      30.01F
HURLBURT       CLEAR     70  65  83 CALM      30.00F
CRESTVIEW      CLEAR     68  67  96 CALM      30.02F
PENSACOLA      CLEAR     71  68  90 N3        30.00F
$$

!ALZ063-066-220500
...South Alabama...

CITY           SKY/WX    TMP DP  RH WIND       PRES   REMARKS
DOTHAN         CLEAR     72  64  76 SW6       30.04F
OZARK CAIRNS   CLEAR     73  65  75 SW6       30.01F
FT RUCKER HELI CLEAR     69  66  90 CALM      30.00F
RUCKER HELI 3  FAIR      75  65  72 SW8       30.03F
RUCKER HELI 2  FAIR      72  65  78 SW3       30.01F
FLORALA APT    CLEAR     71  66  84 SW3       30.03F
ANDALUSIA      CLEAR     77  66  68 CALM      30.01F
TROY           CLEAR     68  66  93 CALM      30.02S
EUFALA         FAIR      69  65  86 SW5       29.99F
MOBILE         PTCLDY    70  70 100 CALM      30.02F
$$

!GAZ120>161-220500
...Southwest and South Central Georgia...

CITY           SKY/WX    TMP DP  RH WIND       PRES   REMARKS
THOMASVILLE    FAIR      68  68 100 CALM      30.03F
BAINBRIDGE     CLEAR     70  64  83 CALM      30.02F
MOODY AFB      CLEAR     68  65  91 SE1       30.02S
VALDOSTA       CLEAR     66  63  90 CALM      30.03S
MOULTRIE       CLEAR     70  63  78 CALM      30.03S
BLAKELY        CLEAR     70  68  94 CALM        N/A
ALBANY         CLEAR     68  65  90 CALM      30.02F
TIFTON         FAIR      70  59  69 CALM      30.02S
FITZGERALD     FAIR      73  59  61 SW5       30.02F
CORDELE        FAIR      75  62  63 SW5       30.01S
AMERICUS       FAIR      72  63  73 CALM      30.02S
$$

!GMZ750-755-770-775-220500
...Coastal and Buoy Obs...

STATION/POSITION TIME  TEMP    WIND        PRES    VSBY  WAVE
                       AIR SEA DIR/SP/G                  HT/PER
                 (UTC) (F)     (DEG/KT/KT) (MB)    (MI)  (FT/S)
KEATON BEACH     0400   72      50/  2/  3 1017.0R
CEDAR KEY        0354   78     360/  4/  4 1017.3R
C TOWER          0400   79     140/  5/  6 1016.5R
APALACHICOLA BUO 0400   81 84   70/  8/ 10 1016.2R         2/ 7
PANAMA CITY BUOY 0310   81 84   80/ 10/ 12 1015.7R         2/ 5
MOBILE BUOY      0322   81 84   70/ 12/ 14 1015.9F         3/ 6
ORANGE BCH AL BU 0400   82 85   80/  4/  6 1016.0F         2/ 5
$$



USA.gov is the U.S. government's official web portal to all federal, state and local government web resources and services.